Home   Weather   Skien   Past weeks
Flag for Norway

Past Weather in Skien, Norway — Yesterday and Last 2 Weeks

Now
68 °F

Passing clouds.


Feels Like: 68 °F
Forecast: 71 / 56 °F
Wind: 12 mph from North

Location: Torp

Current Time: Jul 16, 2019 at 3:03:36 pm

Latest Report: Jul 16, 2019 at 2:20 pm


Visibility: N/A

Pressure: 29.89 "Hg

Humidity: 46%

Dew Point: 46 °F

Location of SkienLocation

Past Weather in Skien — Graph

°F

Skien Temperature Yesterday

Maximum temperature yesterday: 68 °F (at 4:20 pm)
Minimum temperature yesterday: 57 °F (at 3:20 am)
Average temperature yesterday: 61 °F

High & Low Weather Summary for the Past Weeks

 TemperatureHumidityPressure
High75 °F (Jul 10, 2:50 pm)100% (Jul 2, 6:20 am)29.98 "Hg (Jul 2, 6:20 am)
Low45 °F (Jul 5, 4:20 am)24% (Jul 4, 3:50 pm)29.47 "Hg (Jul 1, 5:20 pm)
Average60 °F68%29.81 "Hg
* Reported Jul 1 1:20 pm — Jul 16 1:50 pm, Skien. Weather by CustomWeather, © 2019

Note: Actual official high and low records may vary slightly from our data, if they occured in-between our weather recording intervals... More about our weather records

Advertising

Skien Weather History for the Previous 24 Hours

Scroll right to see more
 ConditionsComfort  
Time TempWeatherWind HumidityBarometerVisibility
1:50 pm
Tue, Jul 16
68 °FPassing clouds.15 mph43%29.89 "HgN/A
1:20 pm66 °FSunny.15 mph49%29.89 "Hg10 mi
12:50 pm66 °FPassing clouds.14 mph49%29.89 "HgN/A
12:20 pm64 °FSunny.14 mph52%29.89 "Hg10 mi
11:50 am64 °FPassing clouds.14 mph46%29.89 "HgN/A
11:20 am63 °FSunny.16 mph49%29.89 "Hg10 mi
10:50 am63 °FPassing clouds.17 mph56%29.89 "HgN/A
10:20 am61 °FPassing clouds.16 mph59%29.89 "HgN/A
9:50 am61 °FSunny.18 mph63%29.89 "Hg10 mi
9:20 am59 °FPassing clouds.14 mph72%29.89 "HgN/A
8:50 am57 °FScattered clouds.10 mph77%29.89 "HgN/A
8:20 am59 °FPassing clouds.8 mph77%29.89 "HgN/A
7:50 am57 °FPassing clouds.8 mph82%29.89 "HgN/A
7:20 am55 °FPassing clouds.7 mph88%29.89 "HgN/A
6:50 am55 °FPassing clouds.5 mph88%29.89 "HgN/A
6:20 am54 °FPassing clouds.3 mph94%29.89 "HgN/A
5:50 am52 °FPassing clouds.7 mph100%29.89 "HgN/A
5:20 am52 °FCool.6 mph100%29.89 "HgN/A
4:50 am50 °FCool.6 mph100%29.89 "HgN/A
4:20 am52 °FCool.3 mph100%29.89 "HgN/A
3:50 am50 °FCool.7 mph100%29.89 "HgN/A
3:20 am52 °FCool.7 mph100%29.89 "HgN/A
2:50 am52 °FCool.6 mph100%29.89 "HgN/A
2:20 am54 °FPassing clouds.3 mph100%29.86 "HgN/A
1:50 am55 °FDrizzle. Mostly cloudy.5 mph100%29.86 "HgN/A
1:20 am55 °FMostly cloudy.7 mph100%29.86 "HgN/A
12:50 am57 °FOvercast.8 mph82%29.86 "HgN/A
12:20 am55 °FPartly cloudy.1 mph94%29.86 "HgN/A
11:50 pm
Mon, Jul 15
57 °FPassing clouds.No wind82%29.83 "HgN/A
11:20 pm59 °FScattered showers. Passing clouds.No wind77%29.83 "HgN/A
10:50 pm61 °FThundershowers. Passing clouds.3 mph68%29.83 "HgN/A
10:20 pm59 °FScattered showers. Passing clouds.3 mph77%29.86 "HgN/A
9:50 pm61 °FScattered showers. Scattered clouds.9 mph72%29.83 "HgN/A
9:20 pm61 °FScattered showers. Scattered clouds.9 mph68%29.83 "HgN/A
8:50 pm63 °FScattered showers. Scattered clouds.9 mph64%29.83 "HgN/A
8:20 pm63 °FSunny.10 mph64%29.83 "Hg10 mi
7:50 pm64 °FScattered showers. Clear.8 mph56%29.83 "HgN/A
7:20 pm64 °FScattered showers. Clear.7 mph52%29.83 "HgN/A
6:50 pm68 °FScattered showers. Clear.7 mph43%29.83 "HgN/A
6:20 pm66 °FPassing clouds.6 mph46%29.86 "HgN/A
5:50 pm68 °FPassing clouds.6 mph46%29.86 "HgN/A
5:20 pm68 °FPassing clouds.6 mph46%29.86 "HgN/A
4:50 pm66 °FPassing clouds.8 mph46%29.86 "HgN/A
4:20 pm68 °FPassing clouds.8 mph43%29.86 "HgN/A
3:50 pm66 °FPassing clouds.9 mph46%29.89 "HgN/A
3:20 pm66 °FPassing clouds.12 mph49%29.89 "HgN/A
Weather by CustomWeather, © 2019

See weather overview

LIVE PARTIAL LUNAR ECLIPSE – Watch the eclipse as it happens